THAICOM 4

Last updated on Sat Sep 12 2026 00:02:59 GMT+0000 (Coordinated Universal Time)

1 28786U 05028A 26254.60510157 -.00000379 00000+0 00000+0 0 9998 2 28786 0.4628 84.6615 0000531 49.7859 193.5078 1.00271160 53115
UTC large
Height (km)
Speed (km/s)
/
Latitude / Longitude
Inclination (degrees)
Orbital Period (minutes)
Azimuth
Elevation
Range (km)
Doppler Factor

Next 0 passes for location: London (51.5072 / 0.1276)

No passes found over London.
THAICOM 4